Overview Statistics Trail Chart Weather Telemetry Raw packets
 

This is the latest recevied weather packets stored in our database for station/object KF7SOJ. If no packets are shown the sender has not sent any weather packets the latest 10 day(s).

<< 46 47 48 49 50 51 52 >>
Time Temp. Humidity Pressure Rain* Wind** Luminosity Snow
1788298909 24.44° C 35% 928.6 hPa 0 mm - 260 W/m² -
1788298609 24.44° C 35% 928.8 hPa 0 mm - 246 W/m² -
1788298304 24.44° C 34% 928.9 hPa 0 mm - 254 W/m² -
1788298003 24.44° C 34% 928.8 hPa 0 mm - 269 W/m² -
1788297699 24.44° C 34% 929.1 hPa 0 mm - 272 W/m² -
1788297394 25° C 33% 929.1 hPa 0 mm - 270 W/m² -
1788297091 24.44° C 33% 929 hPa 0 mm - 309 W/m² -
1788296786 24.44° C 34% 929.2 hPa 0 mm - 338 W/m² -
1788296482 24.44° C 34% 929.1 hPa 0 mm - 434 W/m² -
1788296178 25° C 34% 929.2 hPa 0 mm - 747 W/m² -
1788295877 24.44° C 35% 929.4 hPa 0 mm - 463 W/m² -
1788295574 23.89° C 36% 929.4 hPa 0 mm - 847 W/m² -
1788295274 23.33° C 36% 929.2 hPa 0 mm - 642 W/m² -
1788294973 23.33° C 38% 929.5 hPa 0 mm - 789 W/m² -
1788294668 23.33° C 37% 929.5 hPa 0 mm - 591 W/m² -
1788294368 23.33° C 37% 929.3 hPa 0 mm - 831 W/m² -
1788294064 22.78° C 40% 929.4 hPa 0 mm - 936 W/m² -
1788293760 21.67° C 41% 929.6 hPa 0 mm - 481 W/m² -
1788293459 21.67° C 43% 929.5 hPa 0 mm - 291 W/m² -
1788293159 21.67° C 41% 929.5 hPa 0 mm - 266 W/m² -
1788292854 21.11° C 42% 929.8 hPa 0 mm - 256 W/m² -
1788292552 21.11° C 43% 929.5 hPa 0 mm - 252 W/m² -
1788292251 21.67° C 42% 929.7 hPa 0 mm - 263 W/m² -
1788291947 21.11° C 44% 929.8 hPa 0 mm - 294 W/m² -
1788291642 21.67° C 44% 929.7 hPa 0 mm - 336 W/m² -

* Rain latest hour (hover to see other rain measurements)
** Current wind speed in m/s (hover to see current wind gust speed)